Location: Addison Town Hall
(32.9525°N, 96.8158°W)
Time: 21:38:20
(UTC+00:00)

MOS 1 Rocket - Pass Details

Date: 08 March 2021
Orbit: 615 x 829 km, 97.4° (Epoch: 11 April)

Event Time Altitude Azimuth Distance (km) Brightness Sun altitude
Rises 12:17:30 0° 189° (S) 2,876 6.4 -6.8°
Reaches altitude 10° 12:19:50 10° 199° (SSW) 1,987 5.5 -6.4°
Maximum altitude 12:23:43 33° 263° (W) 1,078 3.8 -5.5°
Drops below altitude 10° 12:27:45 10° 328° (NNW) 2,072 5.4 -4.7°
Sets 12:30:14 0° 338° (NNW) 3,020 6.3 -4.2°
